TimeCST,TemperatureF,Dew PointF,Humidity,Sea Level PressureIn,VisibilityMPH,Wind Direction,Wind SpeedMPH,Gust SpeedMPH,PrecipitationIn,Events,Conditions,WindDirDegrees,DateUTC
12:54 AM,34.0,28.0,79,30.13,10.0,West,9.2,-,N/A,,Clear,280,2013-01-06 06:54:00
1:54 AM,32.0,26.1,79,30.15,10.0,West,8.1,-,N/A,,Clear,270,2013-01-06 07:54:00
2:54 AM,30.9,25.0,79,30.16,10.0,West,10.4,-,N/A,,Clear,270,2013-01-06 08:54:00
3:54 AM,30.9,23.0,72,30.16,10.0,WNW,10.4,-,N/A,,Mostly Cloudy,300,2013-01-06 09:54:00
4:54 AM,28.9,21.0,72,30.19,10.0,NW,20.7,27.6,N/A,,Overcast,320,2013-01-06 10:54:00
6:54 AM,28.9,19.9,69,30.25,10.0,NW,18.4,23.0,N/A,,Overcast,320,2013-01-06 12:54:00
7:54 AM,28.9,19.9,69,30.27,10.0,WNW,11.5,-,N/A,,Overcast,300,2013-01-06 13:54:00
8:26 AM,28.4,19.4,69,30.26,10.0,WNW,11.5,-,N/A,,Scattered Clouds,300,2013-01-06 14:26:00
8:46 AM,28.4,19.4,69,30.27,9.0,WNW,16.1,-,N/A,,Mostly Cloudy,290,2013-01-06 14:46:00
8:54 AM,28.0,19.9,72,30.30,9.0,WNW,13.8,-,N/A,,Mostly Cloudy,290,2013-01-06 14:54:00
9:37 AM,26.6,19.4,74,30.31,8.0,NW,16.1,-,N/A,,Overcast,310,2013-01-06 15:37:00
9:54 AM,25.0,19.0,78,30.35,9.0,WNW,16.1,-,N/A,,Overcast,300,2013-01-06 15:54:00
10:45 AM,28.4,19.4,69,30.33,10.0,NW,12.7,-,N/A,,Scattered Clouds,320,2013-01-06 16:45:00
10:54 AM,28.0,19.0,69,30.36,10.0,NW,10.4,-,N/A,,Partly Cloudy,310,2013-01-06 16:54:00
11:54 AM,30.9,19.9,64,30.35,10.0,WNW,8.1,-,N/A,,Clear,290,2013-01-06 17:54:00
12:54 PM,33.1,21.0,61,30.33,10.0,West,11.5,-,N/A,,Clear,260,2013-01-06 18:54:00
1:54 PM,34.0,19.9,56,30.34,10.0,NW,9.2,-,N/A,,Clear,320,2013-01-06 19:54:00
2:54 PM,35.1,19.9,54,30.35,10.0,WNW,9.2,-,N/A,,Clear,300,2013-01-06 20:54:00
3:54 PM,35.1,19.9,54,30.35,10.0,WNW,5.8,-,N/A,,Clear,290,2013-01-06 21:54:00
4:54 PM,32.0,19.0,59,30.36,10.0,West,4.6,-,N/A,,Clear,280,2013-01-06 22:54:00
5:54 PM,30.9,19.0,61,30.37,10.0,Calm,Calm,-,N/A,,Clear,0,2013-01-06 23:54:00
6:54 PM,30.0,19.0,64,30.38,10.0,West,3.5,-,N/A,,Clear,270,2013-01-07 00:54:00
7:54 PM,28.0,19.9,72,30.39,10.0,Calm,Calm,-,N/A,,Clear,0,2013-01-07 01:54:00
8:54 PM,25.0,19.9,81,30.38,10.0,South,4.6,-,N/A,,Clear,190,2013-01-07 02:54:00
9:54 PM,25.0,19.0,78,30.38,10.0,South,4.6,-,N/A,,Clear,170,2013-01-07 03:54:00
10:54 PM,26.1,19.0,75,30.38,10.0,South,4.6,-,N/A,,Clear,170,2013-01-07 04:54:00
11:54 PM,24.1,19.0,81,30.38,10.0,South,5.8,-,N/A,,Clear,180,2013-01-07 05:54:00